weather.gov     
National Weather Service

Regional Weather Roundup
NWS Homepage
This page is being discontinued on March 12, 2014.
The same data is available at this site. Please update your bookmarks.
Thank you, and we apologize for the inconvenience.
Please send an email to SR-SRH.Webmaster@noaa.gov with any concerns.


Current Version
Previous Version:    01  02  03  04  05  06  07  08  09  10  11  12  13  14  15  16  17  18  19  20  21  22  23  24  25  26  27  28  29  30  
   31  32  33  34  35  36  37  38  39  40  41  42  43  44  45  46  47  48  49  50  51  52  53  54  55  56  57  58  59  60  
[Printable]
845
ASUS46 KPDT 211325
RWRPDT
PENDLETON REGIONAL WEATHER ROUNDUP
NATIONAL WEATHER SERVICE PENDLETON OREGON
600 AM PDT TUE OCT 21 2014

NOTE: FAIR INDICATES FEW OR NO CLOUDS BELOW 12,000 FEET WITH NO
SIGNIFICANT WEATHER AND/OR OBSTRUCTIONS TO VISIBILITY.

# INDICATES UNOFFICIAL STATION AND DATA

WAZ520-211410-
EAST SLOPES OF WASHINGTON CASCADES

CITY            SKY/WX      TMP DP  RH  WIND    PRES   REMARKS
#BUMPING DAM    N/A         43  N/A N/A S1      N/A
#CLE ELUM HS    N/A         44  44  100 CALM    29.83R
#CLE ELUM 2NW   N/A         43  43  100 NE1     N/A
#CLE ELUM LAKE  N/A         N/A N/A N/A W10     29.80R
#CLIFFDEL 2NW   N/A         40  40  100 CALM    N/A
#GLENWOOD       N/A         48  47  96  CALM    29.88R
#MANASTASH CYN  N/A         37  34  89  CALM    29.85R
#NELSON         N/A         41  40  96  CALM    29.86R
#NELSON 3SW     N/A         40  39  96  CALM    30.03R
#NILE           N/A         40  39  96  CALM    29.13R
#RONALD 2NW     N/A         43  42  96  E1      29.73R
#SNOWDEN        N/A         52  49  89  CALM    N/A
#TEANAWAY 4NE   N/A         45  45  100 CALM    N/A
#TROUT LAKE HS  N/A         48  48  100 E1      N/A
#TROUT LAKE 1NE N/A         46  45  96  CALM    29.89R
$$

WAZ521-211410-
SIMCOE HIGHLANDS

CITY            SKY/WX      TMP DP  RH  WIND    PRES   REMARKS
#BICKLETON HS   N/A         41  38  89  CALM    30.00R
#CENTERVILLE 4W N/A         46  44  93  N6      29.66R
#CENTERVILLE 1SWN/A         39  37  92  CALM    29.89R
#GOLDENDALE     N/A         43  43  100 CALM    N/A
#GOLDENDALE 1S  N/A         44  43  96  CALM    29.89R
#GOLDENDALE 5WNWN/A         41  39  93  CALM    29.90R
#GOODNOE HILLS  N/A         48  48  100 NW8     29.85R
#LYLE 6NE       N/A         47  46  96  CALM    29.86R
$$

WAZ026-211410-
KITTITAS VALLEY

CITY            SKY/WX      TMP DP  RH  WIND    PRES   REMARKS
ELLENSBURG AP   CLOUDY      45  43  93  E3      29.86R FOG
#ELLENSBURG CWU N/A         42  41  96  CALM    29.82R
#ELLENSBURG 3NE N/A         43  42  96  CALM    29.88R
#ELLENSBURG     N/A         45  45  100 CALM    N/A
#KITTITAS 3S    N/A         37  36  96  CALM    29.86R
#THORP 6N       N/A         43  42  96  N1      29.85R
$$

WAZ027-211410-
YAKIMA VALLEY

CITY            SKY/WX      TMP DP  RH  WIND    PRES   REMARKS
SUNNYSIDE AP    PTCLDY      41  39  93  N3      29.86F
YAKIMA AIRPORT  PTCLDY      38  36  92  W6      29.87S FOG
YAKIMA-VAGABOND FOG         41  39  93  S5      29.89R VSB 5/8
#COWICHE 1N     N/A         43  39  86  CALM    30.03R
#DONALD 2NE     N/A         50  43  77  CALM    30.19S
#GRANDVIEW      N/A         48  42  80  CALM    29.89R
#MABTON         N/A         53  45  74  SW3     29.85F
#MOXEE 2E       N/A         45  38  76  W3      29.86R
#NACHES 2SW     N/A         43  42  96  W2      29.85R
#OUTLOOK DOT    N/A         N/A N/A N/A E5      N/A
#SELAH 8E       N/A         43  41  93  CALM    N/A
#TERRACE HTS    N/A         42  41  96  CALM    29.84R
#TOPPENISH      N/A         48  44  86  CALM    29.78S
#WAPATO 4NE     N/A         50  43  77  CALM    30.19S
#WEST VALLEY    N/A         40  39  96  CALM    29.86R
#W YAKIMA       N/A         43  42  96  NW3     29.87R
#WHITE SWAN 5E  N/A         52  45  77  W1      29.86R
#WILEY CITY 3W  N/A         41  28  59  CALM    29.96S
$$

WAZ028-211410-
LOWER COLUMBIA BASIN...WASHINGTON

CITY            SKY/WX      TMP DP  RH  WIND    PRES   REMARKS
HANFORD         MOCLDY      49  44  83  W12     29.83S WCI 44
PASCO           PTCLDY      52  49  89  W7      29.88R
PROSSER AWOS    N/A         48  43  83  S3      29.91
RICHLAND AWOS   MOCLDY      52  48  86  S3      29.87R
#BASIN CITY 5SW N/A         50  47  89  CALM    29.86R
#CONNELL 5N     N/A         48  46  93  SW2     29.84S
#CONNELL 5NW    N/A         48  46  93  S7      29.80S
#ELTOPIA        N/A         51  49  93  S3      29.83R
#ELTOPIA 6NW    N/A         49  47  93  S1      28.83R
#KENNEWICK 3S   N/A         50  47  89  S7      29.86R
#PASCO-BROADMOORN/A         53  50  89  SW5     29.77R
#PATERSON       N/A         49  47  93  CALM    29.88R
#PROSSER        N/A         57  39  51  SW7     29.85S
#SAGEMOOR 2W    N/A         50  47  89  CALM    29.70S
#TOUCHET 2S     N/A         54  46  74  CALM    29.88R
#WEST PASCO     N/A         53  48  83  SW2     29.87R
$$

WAZ029-211410-
FOOTHILLS OF THE BLUES...WASHINGTON

CITY            SKY/WX      TMP DP  RH  WIND    PRES   REMARKS
WALLA WALLA AP  CLOUDY      54  46  74  S8      29.90R
#LOWDEN 2SE     N/A         53  47  80  SW1     29.86R
#PLEASANT VIEW 1N/A         47  45  93  S7      29.88R
#PRESCOTT       N/A         52  48  86  CALM    29.86R
#SUDBURY        N/A         52  N/A N/A CALM    N/A
#WHITMAN COLLEGEN/A         54  46  74  S3      29.94R
#WAITSBURG 8N   N/A         49  41  74  S6      29.85R
#WALLA WALLA 5E N/A         53  48  83  CALM    N/A
#WALLA WALLA U  N/A         55  49  80  CALM    29.88R
#WHITMAN MISSIONN/A         54  47  77  CALM    29.90R
$$

WAZ030-211410-
BLUE MOUNTAINS...WASHINGTON

CITY            SKY/WX      TMP DP  RH  WIND    PRES   REMARKS
$$

ORZ009-041-WAZ024-211410-
COLUMBIA RIVER GORGE

CITY            SKY/WX      TMP DP  RH  WIND    PRES   REMARKS
HOOD RIVER AP   CLOUDY      50  48  93  CALM    29.92R
THE DALLES AP   MOCLDY      48  45  89  E8      29.92R
#ARLINGTON AIRPON/A         48  46  93  W3      29.99S
#ARLINGTON HS   N/A         50  45  83  NW1     29.83S
#CELILO DOT     N/A         50  46  86  SE1     N/A
#LYLE           N/A         52  50  93  NE2     29.92R
#MARYHILL 2W    N/A         50  50  100 S1      N/A
#MOSIER 1S      N/A         50  49  96  CALM    N/A
#MURDOCK        N/A         50  49  96  CALM    29.94R
#RUFUS DOT      N/A         N/A N/A N/A W6      N/A

$$

ORZ510-211410-
NORTH CENTRAL OREGON

CITY            SKY/WX      TMP DP  RH  WIND    PRES   REMARKS
#CHENOWITH 1W   N/A         47  46  96  W9      N/A
#COW CYN RST AREN/A         42  38  86  S6      N/A
#DUFUR 9E       N/A         46  40  79  SW2     29.94R
#GRASS VALLEY   N/A         42  41  96  S5      N/A
#GRASS VALLEY 1SN/A         42  39  89  S3      29.96R
#KENT DOT       N/A         41  36  82  S9      N/A
#MAUPIN SCHOOL  N/A         48  43  83  CALM    28.81R
#MORO SCHOOL    N/A         43  42  96  CALM    29.93R
#SHANIKO 5WSW   N/A         41  34  76  S14     N/A    WCI 33
#SHANIKO 4NW    N/A         41  38  89  SW3     29.92S
#TYGH VALLEY 2NEN/A         47  41  79  CALM    29.91R
#WAPANITIA AIRPON/A         47  41  79  W6      29.93R
#WASCO DOT      N/A         43  40  89  CALM    N/A
#WASCO 5NE      N/A         45  43  93  CALM    29.91R
$$

ORZ511-211410-
CENTRAL OREGON

CITY            SKY/WX      TMP DP  RH  WIND    PRES   REMARKS
BEND AIRPORT    PTCLDY      43  36  76  SW14    29.97R WCI 36
MADRAS AIRPORT  PTCLDY      41  37  86  S8      29.96R
PRINEVILLE AP   CLEAR       36  36  100 NE7     29.98R
REDMOND AIRPORT PTCLDY      33  31  92  SE7     29.96R
#BEND 6E        N/A         44  33  65  CALM    29.91R
#BEND 1SW       N/A         38  35  89  SE1     N/A
#BEND-KIM LN    N/A         42  37  82  SW5     29.93R
#CROOKED RVR RANN/A         39  36  89  W26     29.95R WCI 28
#CULVER         N/A         43  36  76  E3      29.91R
#LAKE BILLY CHINN/A         49  25  39  SW8     30.01R
#POWELL BUTTE 3EN/A         44  35  70  SW3     N/A
#POWELL BUTTE   N/A         44  35  70  W10     29.61R
#PRINEVILLE 3N  N/A         33  32  96  CALM    29.94R
#WARM SPRINGS   N/A         41  38  89  CALM    29.92R


ORZ509-211410-
EAST SLOPES OF OREGON CASCADES

CITY            SKY/WX      TMP DP  RH  WIND    PRES   REMARKS
#BLUE BOX PASS  N/A         41  -8  12  CALM    N/A
#CAMP SHERMAN   N/A         40  36  85  CALM    29.96R
#LA PINE DOT    N/A         34  33  96  SE2     N/A
#LA PINE 4NW    N/A         35  32  89  CALM    30.03R
#LAVA BUTTE DOT N/A         37  35  92  SE2     N/A
#SISTERS AIRPOR N/A         36  36  100 CALM    29.91S
#SISTERS ODOT   N/A         36  N/A N/A CALM    N/A
#SISTERS 3N     N/A         37  32  82  CALM    29.98R
#SUNRIVER       N/A         39  37  92  SW2     29.87R
#SUNRIVER AP    N/A         37  35  92  SW1     29.95R
#SUTTLE LK DOT  N/A         37  37  100 W21G40  N/A    WCI 26
#TUMALO 3W      N/A         41  35  79  S3      29.82R
#WANOGA BUTTE D N/A         33  32  96  W9      N/A

$$

ORZ044-211410-
LOWER COLUMBIA BASIN...OREGON

CITY            SKY/WX      TMP DP  RH  WIND    PRES   REMARKS
HERMISTON       PTCLDY      49  44  83  SW7     29.89R
#BOARDMAN SCHOOLN/A         58  53  83  CALM    29.91R
#BOARDMAN 3W    N/A         48  45  89  W3      29.62R
#BOARDMAN 8SW   N/A         48  45  89  SW6     29.90R
#ECHO 8SW       N/A         50  42  74  W5      29.88R
#IONE SCHOOL    N/A         53  41  64  W3      29.91R
#IRRIGON 4NW    N/A         51  50  96  SW5     N/A
#UMATILLA SCHOOLN/A         46  46  100 CALM    29.94R
#UMATILLA       N/A         50  45  83  CALM    29.88R
$$

ORZ507-211410-
NORTHERN FOOTHILLS OF THE BLUES

CITY            SKY/WX      TMP DP  RH  WIND    PRES   REMARKS
PENDLETON AIRPT CLOUDY      47  44  89  CALM    29.91R
#ADAMS 3WNW     N/A         44  42  93  CALM    29.90R
#ATHENA         N/A         50  44  80  CALM    29.91R
#CAYUSE         N/A         51  45  80  CALM    29.89R
#HELIX SCHOOL   N/A         45  43  93  CALM    29.89R
#HELIX 3N       N/A         46  43  89  N7      29.88R
#HOLDMAN 5SE    N/A         49  44  83  CALM    29.91R
#HOLDMAN 6E     N/A         46  43  89  NW3     29.70R
#M-F FERNDALE   N/A         53  46  77  CALM    29.90R
#M-F GROVE ELEM N/A         54  43  66  SW3     29.88R
#M-FREEWATER 5SEN/A         54  44  69  S1      29.91R
#PENDLETON DNTN N/A         47  44  89  CALM    28.73R
#PDT AQUATIC CTRN/A         48  42  80  CALM    29.88S
#PDT SUNRIDGE   N/A         46  44  93  CALM    29.92R
#PENDLETON 7NW  N/A         44  40  86  CALM    26.71F
#PILOT ROCK     N/A         49  41  74  CALM    29.93R
#TUTUILLA       N/A         48  44  86  S1      29.91R
#UMAPINE 2E     N/A         54  47  77  SW1     29.87R
#WESTON SCHOOL  N/A         51  41  68  W6      29.88R

$$

ORZ508-211410-
SOUTHERN FOOTHILLS OF THE BLUES

CITY            SKY/WX      TMP DP  RH  WIND    PRES   REMARKS
LEXINGTON       PTCLDY      50  43  77  SW3     29.94R
#AJAX           N/A         47  36  65  S7      29.86R
#CONDON SCHOOL  N/A         41  39  93  CALM    29.90R
#CONDON 5W      N/A         41  40  96  S3      29.89R
#FOSSIL SCHOOL  N/A         43  40  89  CALM    29.92R
#HEPPNER EOC    N/A         50  41  71  W7      29.86R
#HEPPNER 4NE    N/A         46  40  79  SW2     29.90R
#LEXINGTON 2SE  N/A         51  43  74  S2      29.90R
#MIKKALO        N/A         47  40  76  W6      29.91R
#OLEX 4N        N/A         45  41  86  SW7     29.91R
#RUGGS 5NE      N/A         45  40  82  SW7     30.07R
#RUGGS 2SW      N/A         46  39  76  W8      29.91R

$$

ORZ502-503-211410-
BLUE MOUNTAINS

CITY            SKY/WX      TMP DP  RH  WIND    PRES   REMARKS
MEACHAM         CLOUDY      42  41  96  CALM    29.92R
#BATTLE MTN DOT N/A         40  41  100 SE2     N/A
#HEPPNER 15SE   N/A         39  37  92  N2      29.82R
#LADD CYN SMT   N/A         45  37  73  N7      N/A
#LADD CREEK ODOTN/A         46  43  89  NE6     N/A
#N POWDER DOT   N/A         45  41  86  NE9     N/A
#PIKES PEAK     N/A         45  40  82  SW16    27.99S WCI 38
#TROY SCHOOL    N/A         51  43  74  CALM    29.72R
#UKIAH          N/A         41  40  96  CALM    29.96R
#WESTON 4E      N/A         45  41  86  S5      29.81R
$$

ORZ505-211410-
JOHN DAY BASIN

CITY            SKY/WX      TMP DP  RH  WIND    PRES   REMARKS
JOHN DAY        CLOUDY      45  44  96  CALM    29.96R FOG
#JOHN DAY KJDY  N/A         47  42  83  CALM    30.06R
#DAYVILLE SCHOOLN/A         46  44  93  CALM    29.93R
#MT. VERNON 5SE N/A         42  39  89  CALM    29.90R
#WINLOCK        N/A         42  41  96  CALM    30.03R
$$

ORZ506-211410-
OCHOCO AND JOHN DAY HIGHLANDS

CITY            SKY/WX      TMP DP  RH  WIND    PRES   REMARKS
#BUCK CREEK DOT N/A         38  38  100 CALM    N/A
#HORSE RIDGE DO N/A         34  30  85  CALM    N/A
#KEYES SMT DOT  N/A         35  34  96  CALM    N/A
#PAULINA SCHOOL N/A         32  30  92  CALM    29.98R
#PINE MTN OBS   N/A         32  30  92  S6      N/A
#PRAIRIE CITY   N/A         38  38  100 CALM    30.05S
#SENECA         N/A         37  N/A N/A CALM    N/A
#SENECA 9NW     N/A         36  35  96  CALM    29.88R
$$

ORZ049-211410-
GRANDE RONDE VALLEY

CITY            SKY/WX      TMP DP  RH  WIND    PRES   REMARKS
LA GRANDE       MOCLDY      48  36  63  NW6     29.91R
#COVE           N/A         47  42  83  CALM    29.85R
#COVE SCHOOL    N/A         47  40  76  CALM    29.90R
#COVE 6NW       N/A         46  40  79  CALM    29.93R
#ELGIN 3N       N/A         46  39  76  CALM    29.65R
#ELGIN 1E       N/A         48  40  74  CALM    N/A
#IMBLER SCHOOL  N/A         63  35  35  SW3     29.84S
#ISLAND CITY 4N N/A         52  51  96  CALM    29.91R
#LADD CYN DOT   N/A         47  41  79  CALM    N/A
#UNION 1S       N/A         46  40  79  CALM    29.76R
$$

ORZ050-211410-
WALLOWA COUNTY

CITY            SKY/WX      TMP DP  RH  WIND    PRES   REMARKS
JOSEPH AIRPORT  PTCLDY      41  41  100 CALM    29.92R
#ENTERPRISE HS  N/A         43  41  93  CALM    29.93R
#IMNAHA 10S     N/A         43  41  93  CALM    29.90S
#JOSEPH 3N      N/A         40  34  79  CALM    29.93S
#JOSEPH 3W      N/A         39  39  100 CALM    29.77R
#LOSTINE        N/A         42  39  89  CALM    29.67R
#MT HOWARD 8000 N/A         29  28  96  N2      29.90R
#PROMISE 1S     N/A         45  38  76  CALM    29.94R
#SHEEP RDG 7000 N/A         32  30  92  CALM    29.75R
#WALLOWA SCHOOL N/A         45  41  86  CALM    30.80R



$$




U.S. Dept. of Commerce
NOAA National Weather Service
1325 East West Highway
Silver Spring, MD 20910
E-mail: w-nws.webmaster@noaa.gov
Page last modified: May 16, 2007
NATIONAL WEATHER SERVICE: for Safety, for Work, for Fun - FOR LIFE